OBJECT A, 67746

Orbit data source: Space-Track

You're viewing an Uncataloged Satellite

Recently launched and/or uncataloged satellites may have evolving metadata. Metadata may include but not limited to: Owner, Maufacturer, Bus, Motor, and Mission.

OBJECT A, 67746 is a Chinese satellite in SSO that was launched on Thu, 12 Feb 2026 UTC via a JIELONG-3 launch vehicle from the South China Sea Launch Area (SCSLA). Unknown objects in Earth's orbit typically refer to objects detected orbiting the Earth but have not yet been identified or cataloged. These objects could be anything from previously untracked satellites, spent rocket stages, debris from satellite collisions, or even natural meteoroids temporarily captured by Earth's gravity.

Loading next visibility...
Identifier
67746, 2026-027A
Orbit
SSO
Country
Flag of CNCN / PRC
Related business
None
Manufacturer
Unknown
Mission
Operational spacecraft
Bus & Motor
Unknown
Mass
Unknown
Launch date (UTC)
2026-02-12 (1 month ago)
Launch vehicle
JIELONG-3
Launch site
South China Sea Launch Area (SCSLA)
Object type
Unknown
Shape & HBR
Unknown
Radar Cross Section
RCS unknown

Expand to show TLE details & history
Last TLE update: 10 hours ago

TLE from 10 hours ago
0 OBJECT A
1 67746U 26027A   26071.93398488  .00009096  00000-0  45277-3 0  9997
2 67746  97.4902 200.9131 0010408 182.9550 177.1624 15.17778398  4358
Epoch: 2026-03-12T22:24Z
TLE epoch observation values (Epoch: 2026-03-12T22:24:56.293Z)
Latitude
-0.00003°
Longitude
54.1018°
Altitude
522.806 km
Speed
7.598 km/s
True Right ascension
13h 23m 39s
True Declination
0° 00' 00"
Sunlit
Object was in full shadow at epoch
Visualization orbit readout
Latitude
Unknown
Longitude
Unknown
Altitude
Unknown
Speed
Unknown
Apparent Right ascension
Unknown
Apparent Declination
Unknown
Sunlit
N/A
Visualization observer readout
Local Sidereal Time
13:01:22
Azimuth
Unknown
Elevation
Unknown
Doppler factor
Unknown
Orbital elements
Apogee altitude
516.698 km
Perigee altitude
502.36 km
Semi-major axis
6,887.666 km
Eccentricity
0.00104
Inclination
97.4902°
RAAN
200.9131°
Arg. of periapsis
182.955°
True anomaly
177.1683°
Mean anomaly
177.1624°
Eccentric anomaly
177.16535°
Mean motion
3.79695 °/min
Orbital period
94.81 mins
BSTAR
0.00045277
Loading maneuver chart data...
Computing Atmospheric mass density...
Loading historical data...
Loading historical data...
Loading historical data...
Loading historical data...
Loading historical data...
Loading historical data...
Loading historical data...

Documentation

Showing up to 5 results
|